Flag for U.S.A. Weather past 2 weeks in Bristol, Tennessee, U.S.A.

Now
39 °F

Rain. Overcast.


Feels Like: 32 °F
Forecast: 20 / 38 °F
Wind: 10 mph from Northwest

Location: Abingdon-Southwest Abingdon

Current Time: Jan 30, 2015 at 12:51:06 AM

Latest Report: Jan 30, 2015 at 12:15 AM


Visibility: 7 mi

Pressure: 30.05 "Hg

Humidity: 86%

Dew point: 35 °F

Location of BristolLocation

Historic Weather in Bristol — Graph

°F

Bristol temperature yesterday

Maximum temperature yesterday: 51 °F (at 3:15 PM)
Minimum temperature yesterday: 28 °F (at 12:55 AM)
Average temperature yesterday: 39 °F

Past Weeks' High & Low Weather Summary

 TemperatureHumidityPressure
High59 °F (Jan 17, 2:15 PM)99% (Jan 24, 4:55 AM)30.32 "Hg (Jan 24, 4:55 AM)
Low18 °F (Jan 28, 7:55 AM)27% (Jan 17, 3:35 PM)29.62 "Hg (Jan 26, 3:55 AM)
Average37 °F70%30.01 "Hg
* Reported Jan 14 11:15 PM — Jan 29 11:55 PM, Bristol, Weather by CustomWeather, © 2014

Note: Actual official high and low records may vary slightly from our data, if they occured in-between our weather recording intervals... More about our weather records

Advertising

Bristol weather history for previous 24 hours

 ConditionsComfort  
Time TempWeatherWind HumidityBarometerVisibility
11:55 PM
Jan 29
40 °FDrizzle. Overcast.9 mph85%30.05 "Hg7 mi
11:15 PM42 °FDrizzle. Overcast.13 mph84%30.02 "Hg7 mi
10:15 PM48 °FOvercast.5 mph60%30.00 "Hg10 mi
9:55 PM47 °FMostly cloudy.7 mph61%29.99 "Hg10 mi
9:35 PM47 °FMostly cloudy.6 mph60%30.00 "Hg10 mi
9:15 PM46 °FMostly cloudy.7 mph62%30.00 "Hg10 mi
8:55 PM44 °FOvercast.6 mph64%30.01 "Hg10 mi
8:35 PM45 °FMostly cloudy.No wind61%30.02 "Hg10 mi
8:15 PM44 °FMostly cloudy.No wind64%30.01 "Hg10 mi
7:55 PM43 °FOvercast.No wind65%30.02 "Hg10 mi
7:35 PM43 °FOvercast.No wind66%30.01 "Hg10 mi
7:15 PM44 °FOvercast.No wind61%30.01 "Hg10 mi
6:55 PM45 °FOvercast.No wind60%30.01 "Hg10 mi
6:15 PM46 °FPassing clouds.No wind57%30.01 "Hg10 mi
5:55 PM46 °FClear.5 mph57%30.01 "Hg10 mi
5:35 PM47 °FSunny.7 mph54%30.00 "Hg10 mi
5:15 PM48 °FSunny.9 mph52%29.99 "Hg10 mi
4:55 PM49 °FSunny.14 mph50%29.99 "Hg10 mi
4:15 PM50 °FScattered clouds.12 mph47%29.98 "Hg10 mi
3:55 PM50 °FScattered clouds.12 mph46%29.97 "Hg10 mi
3:35 PM51 °FSunny.10 mph43%29.97 "Hg10 mi
3:15 PM51 °FSunny.9 mph43%29.97 "Hg10 mi
2:55 PM49 °FScattered clouds.8 mph46%29.98 "Hg10 mi
2:35 PM48 °FScattered clouds.6 mph50%29.99 "Hg10 mi
2:15 PM46 °FScattered clouds.6 mph52%29.99 "Hg10 mi
1:55 PM42 °FPartly sunny.No wind60%30.00 "Hg10 mi
1:35 PM41 °FPartly sunny.3 mph65%30.02 "Hg10 mi
1:15 PM39 °FMostly cloudy.No wind67%30.03 "Hg10 mi
12:55 PM38 °FMostly cloudy.3 mph73%30.06 "Hg10 mi
12:35 PM38 °FLight rain. More clouds than sun.5 mph70%30.08 "Hg10 mi
12:15 PM40 °FLight snow. More clouds than sun.6 mph52%30.10 "Hg7 mi
11:55 AM40 °FMore clouds than sun.No wind49%30.12 "Hg10 mi
11:35 AM40 °FDrizzle. Overcast.No wind47%30.12 "Hg10 mi
11:15 AM40 °FBroken clouds.No wind45%30.11 "Hg10 mi
10:55 AM40 °FSunny.No wind47%30.12 "Hg10 mi
10:35 AM39 °FSunny.3 mph49%30.12 "Hg10 mi
10:15 AM38 °FSunny.6 mph49%30.13 "Hg10 mi
9:55 AM38 °FSunny.6 mph53%30.14 "Hg10 mi
9:15 AM35 °FSunny.7 mph57%30.14 "Hg10 mi
9:00 AM34 °FSunny.9 mph58%30.15 "Hg10 mi
8:35 AM32 °FSunny.6 mph64%30.16 "Hg10 mi
8:15 AM32 °FSunny.6 mph64%30.16 "Hg10 mi
7:55 AM32 °FSunny.8 mph62%30.16 "Hg10 mi
7:35 AM32 °FSunny.5 mph62%30.16 "Hg10 mi
7:15 AM32 °FClear.No wind64%30.16 "Hg10 mi
6:55 AM31 °FClear.6 mph68%30.15 "Hg10 mi
6:35 AM32 °FClear.No wind61%30.15 "Hg10 mi
6:15 AM30 °FClear.5 mph69%30.15 "Hg10 mi
5:55 AM31 °FClear.6 mph69%30.15 "Hg10 mi
5:35 AM32 °FClear.3 mph64%30.16 "Hg10 mi
5:15 AM32 °FClear.5 mph61%30.16 "Hg10 mi
4:55 AM31 °FClear.7 mph65%30.17 "Hg10 mi
4:35 AM29 °FClear.7 mph72%30.18 "Hg10 mi
4:15 AM29 °FClear.6 mph70%30.19 "Hg10 mi
3:55 AM30 °FClear.No wind67%30.19 "Hg10 mi
3:35 AM31 °FClear.3 mph62%30.20 "Hg10 mi
3:15 AM31 °FClear.3 mph63%30.19 "Hg10 mi
2:55 AM31 °FClear.5 mph65%30.19 "Hg10 mi
2:35 AM31 °FClear.5 mph65%30.19 "Hg10 mi
2:15 AM31 °FClear.5 mph66%30.19 "Hg10 mi
1:55 AM31 °FClear.7 mph67%30.20 "Hg10 mi
1:15 AM29 °FClear.7 mph71%30.21 "Hg10 mi
12:55 AM28 °FClear.5 mph74%30.22 "Hg10 mi
12:35 AM29 °FClear.6 mph73%30.22 "Hg10 mi
12:15 AM30 °FClear.8 mph71%30.21 "Hg10 mi
Weather by CustomWeather, © 2014

See weather overviewHow to use our weather pages